Weather reports worldwide

Advertisment
Brize Norton, United Kingdom (3649): temperature & dewpoint: 16.03.2019 17:00:00 - 22.03.2019 17:00:00 (GMT)Brize Norton, United Kingdom (3649): temperature -20cm & temperature -100cm: 16.03.2019 17:00:00 - 22.03.2019 17:00:00 (GMT)Brize Norton, United Kingdom (3649): wind speed & gusts: 16.03.2019 17:00:00 - 22.03.2019 17:00:00 (GMT)Brize Norton, United Kingdom (3649): wind direction: 16.03.2019 17:00:00 - 22.03.2019 17:00:00 (GMT)Brize Norton, United Kingdom (3649): reduced air pressure: 16.03.2019 17:00:00 - 22.03.2019 17:00:00 (GMT)Brize Norton, United Kingdom (3649): visibility: 16.03.2019 17:00:00 - 22.03.2019 17:00:00 (GMT)Brize Norton, United Kingdom (3649): sunshine duration: 16.03.2019 17:00:00 - 22.03.2019 17:00:00 (GMT)Brize Norton, United Kingdom (3649): precipitation: 16.03.2019 17:00:00 - 22.03.2019 17:00:00 (GMT)
Date & Time tt [°C] td [°C] tt -20cm [°C] tt -100cm [°C] ff [km/h] ff [kn] fx [km/h] fx [kn] dd ppp [hPa] vv [km] sd [min] rr [mm]
22.03.2019 17:00:00 11,2 7,1 - - 8 4 - - WSW 1026,6 10 0 0,0
22.03.2019 16:00:00 11,4 7,2 - - 11 6 - - SW 1026,4 10 0 0,0
22.03.2019 15:00:00 11,5 7,1 - - 13 7 - - SW 1026,7 10 0 0,0
22.03.2019 14:00:00 11,5 6,6 - - 11 6 - - SW 1026,9 10 0 0,0
22.03.2019 13:00:00 11,1 7,1 - - 9 5 - - WSW 1027,5 10 0 0,0
22.03.2019 12:00:00 10,5 6,6 - - 11 6 - - WSW 1027,8 10 0 0,0
22.03.2019 11:00:00 10,3 6,7 - - 15 8 - - SW 1028,1 10 0 0,0
22.03.2019 10:00:00 9,5 6,7 - - 13 7 - - SW 1028,4 10 0 0,0
22.03.2019 09:00:00 9,4 6,5 9,7 9,0 11 6 - - SW 1028,6 10 0 0,0
22.03.2019 08:00:00 9,0 6,4 - - 13 7 - - SW 1028,8 10 0 0,0
22.03.2019 07:00:00 9,0 6,7 - - 11 6 - - SSW 1028,5 10 0 0,0
22.03.2019 06:00:00 9,2 6,5 - - 13 7 - - SSW 1028,4 10 0 0,0
22.03.2019 05:00:00 9,4 6,3 - - 11 6 - - S 1028,8 25 0 0,0
22.03.2019 04:00:00 9,8 7,1 - - 13 7 - - SSW 1029,0 10 0 0,0
22.03.2019 03:00:00 10,4 7,6 - - 15 8 - - SSW 1029,3 10 0 0,0
22.03.2019 02:00:00 10,8 7,9 - - 13 7 - - SSW 1029,4 10 0 0,0
22.03.2019 01:00:00 10,9 8,3 - - 5 3 - - S 1030,2 10 0 0,0
22.03.2019 00:00:00 10,8 8,9 - - 4 2 - - SSW 1030,3 10 - 0,0
21.03.2019 23:00:00 10,6 8,8 - - 5 3 - - S 1030,6 10 0 0,0
21.03.2019 22:00:00 10,8 8,6 - - 5 3 - - SSE 1031,5 10 0 0,0
21.03.2019 21:00:00 11,2 8,5 - - 4 2 - - SSW 1031,9 10 0 0,0
21.03.2019 20:00:00 11,1 8,6 - - 5 3 - - SSE 1032,1 10 0 0,0
21.03.2019 19:00:00 11,5 8,5 - - 4 2 - - SSE 1032,1 10 0 0,0
21.03.2019 18:00:00 11,8 8,4 - - 4 2 - - SSW 1032,0 10 0 0,0
21.03.2019 17:00:00 11,8 8,7 - - 8 4 - - S 1032,1 10 0 0,0
21.03.2019 16:00:00 12,0 8,6 - - 8 4 - - S 1032,2 10 0 0,0
21.03.2019 15:00:00 11,9 8,9 - - 5 3 - - SW 1032,6 10 0 0,0
21.03.2019 14:00:00 11,7 8,9 - - 5 3 - - W 1033,4 10 0 0,0
21.03.2019 13:00:00 11,3 8,7 - - 9 5 - - W 1034,1 10 0 0,0
21.03.2019 12:00:00 11,1 8,8 - - 8 4 - - W 1034,3 10 0 0,0
21.03.2019 11:00:00 10,2 8,5 - - 9 5 - - WSW 1034,3 10 0 0,0
21.03.2019 10:00:00 9,2 8,4 - - 11 6 - - W 1034,3 10 0 0,0
21.03.2019 09:00:00 8,5 8,1 9,5 8,9 11 6 - - W 1034,1 3,0 0 0,0
21.03.2019 08:00:00 8,0 7,5 - - 13 7 - - W 1033,8 5 0 0,0
21.03.2019 07:00:00 7,7 7,1 - - 5 3 - - W 1033,5 10 0 0,0
21.03.2019 06:00:00 8,0 7,2 - - 4 2 - - SW 1033,3 10 0 0,0
21.03.2019 05:00:00 8,3 7,5 - - 11 6 - - W 1032,9 10 0 0,0
21.03.2019 04:00:00 8,5 7,8 - - 9 5 - - WSW 1032,7 10 0 0,0
21.03.2019 03:00:00 8,4 7,6 - - 8 4 - - W 1032,8 10 0 0,0
21.03.2019 02:00:00 8,3 7,3 - - 9 5 - - W 1033,2 10 0 0,0
21.03.2019 01:00:00 8,4 7,3 - - 15 8 - - W 1033,3 25 0 0,0
21.03.2019 00:00:00 8,6 7,4 - - 11 6 - - W 1033,3 10 - 0,0
20.03.2019 23:00:00 8,8 7,3 - - 11 6 - - WSW 1033,2 10 0 0,0
20.03.2019 22:00:00 9,8 8,0 - - 9 5 - - WSW 1033,0 10 0 0,0
20.03.2019 21:00:00 10,6 8,1 - - 8 4 - - WSW 1033,0 10 0 0,0
20.03.2019 20:00:00 11,1 8,2 - - 4 2 - - SW 1032,8 10 0 0,0
20.03.2019 19:00:00 11,2 7,9 - - 4 2 - - SW 1032,6 10 0 0,0
20.03.2019 18:00:00 11,4 8,0 - - 8 4 - - SW 1032,3 10 0 0,0
20.03.2019 17:00:00 12,0 8,1 - - 9 5 - - SW 1032,0 10 0 0,0
20.03.2019 16:00:00 12,0 7,8 - - 11 6 - - SW 1031,9 50 0 0,0
20.03.2019 15:00:00 11,9 7,9 - - 11 6 - - SW 1032,1 10 0 0,0
20.03.2019 14:00:00 12,2 8,3 - - 9 5 - - SW 1032,3 10 0 0,0
20.03.2019 13:00:00 11,5 7,9 - - 11 6 - - WSW 1032,6 10 0 0,0
20.03.2019 12:00:00 11,1 7,7 - - 11 6 - - SW 1032,7 10 0 0,0
20.03.2019 11:00:00 10,5 8,3 - - 13 7 - - SW 1032,5 10 0 0,0
20.03.2019 10:00:00 9,8 7,7 - - 9 5 - - W 1032,7 10 0 0,0
20.03.2019 09:00:00 9,5 7,8 9,2 8,7 9 5 - - W 1032,7 10 0 0,0
20.03.2019 08:00:00 9,1 7,8 - - 9 5 - - WSW 1031,8 25 0 0,0
20.03.2019 07:00:00 8,8 8,4 - - 8 4 - - WSW 1031,4 5 0 0,0
20.03.2019 06:00:00 8,7 8,4 - - 5 3 - - SW 1031,2 5 0 0,0
20.03.2019 05:00:00 8,8 8,2 - - 5 3 - - SW 1030,7 10 0 0,0
20.03.2019 04:00:00 8,9 8,2 - - 8 4 - - W 1030,8 10 0 0,0
20.03.2019 03:00:00 8,9 8,3 - - 5 3 - - SW 1030,3 7 0 0,0
20.03.2019 02:00:00 9,1 8,0 - - 9 5 - - W 1030,6 9 0 0,0
20.03.2019 01:00:00 8,7 7,8 - - 11 6 - - W 1030,4 10 0 0,0
20.03.2019 00:00:00 8,5 7,5 - - 11 6 - - W 1030,5 10 - 0,0
19.03.2019 23:00:00 8,8 7,4 - - 8 4 - - WSW 1030,2 10 0 0,0
19.03.2019 22:00:00 9,2 7,4 - - 9 5 - - W 1029,9 10 0 0,0
19.03.2019 21:00:00 9,5 7,0 - - 8 4 - - WSW 1029,6 10 0 0,0
19.03.2019 20:00:00 10,1 6,1 - - 11 6 - - W 1029,2 10 0 0,0
19.03.2019 19:00:00 10,9 5,7 - - 11 6 - - W 1028,8 10 0 0,0
19.03.2019 18:00:00 11,3 6,8 - - 5 3 - - WSW 1027,8 10 0 0,0
19.03.2019 17:00:00 11,5 7,1 - - 9 5 - - WSW 1027,2 10 0 0,0
19.03.2019 16:00:00 11,4 7,4 - - 11 6 - - WSW 1027,1 10 0 0,0
19.03.2019 15:00:00 11,8 7,0 - - 11 6 - - WSW 1027,1 10 0 0,0
19.03.2019 14:00:00 11,9 7,7 - - 13 7 - - W 1027,2 10 0 0,0
19.03.2019 13:00:00 12,4 7,3 - - 11 6 - - WSW 1027,2 30 12 0,0
19.03.2019 12:00:00 11,5 7,8 - - 11 6 - - SSW 1027,4 20 0 0,0
19.03.2019 11:00:00 10,4 7,6 - - 9 5 - - WSW 1027,4 15 0 0,0
19.03.2019 10:00:00 9,8 7,4 - - 8 4 - - WSW 1027,2 7 0 0,0
19.03.2019 09:00:00 9,4 7,8 8,7 8,7 9 5 - - W 1026,8 5 18 0,0
19.03.2019 08:00:00 6,7 6,5 - - 9 5 - - W 1026,6 1,0 0 0,0
19.03.2019 07:00:00 6,6 6,2 - - 4 2 - - WSW 1026,0 3,0 0 0,0
19.03.2019 06:00:00 6,8 6,3 - - 5 3 - - W 1025,6 3,5 0 0,0
19.03.2019 05:00:00 6,8 6,2 - - 5 3 - - WSW 1025,3 4,0 0 0,0
19.03.2019 04:00:00 6,6 6,2 - - 9 5 - - W 1025,1 4,0 0 0,0
19.03.2019 03:00:00 6,5 5,9 - - 5 3 - - WSW 1024,9 3,7 0 0,0
19.03.2019 02:00:00 6,8 6,0 - - 5 3 - - WSW 1024,9 5 0 0,0
19.03.2019 01:00:00 7,3 6,2 - - 5 3 - - WSW 1024,8 7 0 0,0
19.03.2019 00:00:00 7,4 6,2 - - 8 4 - - W 1024,5 10 - 0,0
18.03.2019 23:00:00 7,4 6,2 - - 5 3 - - WSW 1024,4 10 0 0,0
18.03.2019 22:00:00 7,3 6,0 - - 5 3 - - W 1024,0 10 0 0,0
18.03.2019 21:00:00 7,9 6,2 - - 5 3 - - W 1023,8 10 0 0,0
18.03.2019 20:00:00 8,2 6,1 - - 8 4 - - W 1023,3 10 0 0,0
18.03.2019 19:00:00 8,4 5,9 - - 8 4 - - W 1022,7 10 0 0,0
18.03.2019 18:00:00 8,6 5,8 - - 8 4 - - W 1022,4 10 6 0,0
18.03.2019 17:00:00 8,8 5,7 - - 9 5 - - W 1021,8 10 6 0,0
18.03.2019 16:00:00 9,4 4,7 - - 11 6 - - W 1021,4 10 0 0,0
18.03.2019 15:00:00 9,1 4,1 - - 15 8 - - W 1021,3 10 6 0,0
18.03.2019 14:00:00 9,7 3,7 - - 13 7 - - W 1021,2 10 6 0,0
18.03.2019 13:00:00 9,1 3,1 - - 11 6 - - WSW 1021,3 10 0 0,0
18.03.2019 12:00:00 9,2 3,0 - - 13 7 - - W 1021,4 10 24 0,0
18.03.2019 11:00:00 9,6 3,2 - - 16 9 - - W 1021,3 10 60 0,0
18.03.2019 10:00:00 8,3 4,0 - - 13 7 - - W 1021,2 10 0 0,0
18.03.2019 09:00:00 6,5 3,8 8,7 8,7 11 6 - - W 1020,7 10 0 0,0
18.03.2019 08:00:00 5,0 3,0 - - 9 5 - - W 1020,1 10 0 0,0
18.03.2019 07:00:00 4,2 2,3 - - 8 4 - - W 1019,8 10 0 0,0
18.03.2019 06:00:00 3,7 2,0 - - 9 5 - - W 1019,3 10 0 0,0
18.03.2019 05:00:00 3,8 1,8 - - 9 5 - - W 1018,7 10 0 0,0
18.03.2019 04:00:00 3,9 1,6 - - 9 5 - - W 1018,1 10 0 0,0
18.03.2019 03:00:00 4,0 1,5 - - 11 6 - - WNW 1017,6 10 0 0,0
18.03.2019 02:00:00 4,5 2,0 - - 13 7 - - WNW 1017,3 30 0 0,0
18.03.2019 01:00:00 5,0 2,2 - - 16 9 - - NW 1016,5 10 0 0,0
18.03.2019 00:00:00 5,2 2,6 - - 15 8 - - NW 1015,6 10 - 0,0
17.03.2019 23:00:00 5,9 2,2 - - 16 9 - - WNW 1014,8 10 0 0,0
17.03.2019 22:00:00 6,2 2,4 - - 21 11 - - WNW 1013,8 10 0 0,0
17.03.2019 21:00:00 5,9 3,1 - - 15 8 - - WNW 1013,1 10 0 0,0
17.03.2019 20:00:00 5,2 2,9 - - 8 4 - - W 1012,1 10 0 0,0
17.03.2019 19:00:00 5,3 3,0 - - 11 6 - - WNW 1010,8 10 0 0,0
17.03.2019 18:00:00 5,8 2,9 - - 13 7 - - W 1009,6 10 0 0,0
17.03.2019 17:00:00 6,2 2,1 - - 21 11 52 28 W 1009,0 10 0 0,0
17.03.2019 16:00:00 8,2 -0,5 - - 16 9 46 25 WNW 1007,7 10 6 0,0
17.03.2019 15:00:00 8,8 -2,2 - - 29 16 48 26 WNW 1007,3 10 30 0,0
17.03.2019 14:00:00 9,2 -0,6 - - 22 12 - - WNW 1006,4 10 36 0,4
17.03.2019 13:00:00 9,2 -0,8 - - 22 12 - - W 1006,3 10 54 0,0
17.03.2019 12:00:00 9,1 0,0 - - 16 9 - - W 1005,9 10 42 0,0
17.03.2019 11:00:00 7,3 -0,3 - - 21 11 - - WNW 1005,8 10 30 0,0
17.03.2019 10:00:00 6,6 0,2 - - 21 11 - - W 1005,1 10 36 0,0
17.03.2019 09:00:00 6,0 1,3 9,0 8,7 16 9 - - W 1004,5 10 54 0,0
17.03.2019 08:00:00 4,4 1,6 - - 13 7 - - W 1003,3 10 54 0,0
17.03.2019 07:00:00 2,8 1,3 - - 8 4 - - WSW 1002,6 10 18 0,0
17.03.2019 06:00:00 2,8 1,2 - - 13 7 - - W 1001,6 10 0 0,0
17.03.2019 05:00:00 3,6 1,9 - - 11 6 - - W 1000,6 10 0 0,0
17.03.2019 04:00:00 4,0 2,2 - - 11 6 - - WSW 999,7 10 0 0,0
17.03.2019 03:00:00 3,9 1,9 - - 15 8 - - W 999,0 10 0 0,0
17.03.2019 02:00:00 5,1 2,8 - - 15 8 - - W 998,2 10 0 0,0
17.03.2019 01:00:00 5,9 4,4 - - 9 5 - - WSW 997,6 10 0 0,4
17.03.2019 00:00:00 6,1 4,3 - - 11 6 - - W 996,9 10 - 0,0
16.03.2019 23:00:00 6,7 4,7 - - 18 10 - - W 996,3 10 0 0,0
16.03.2019 22:00:00 6,7 5,0 - - 16 9 - - W 995,5 10 0 1,0
16.03.2019 21:00:00 8,0 6,6 - - 21 11 46 25 WSW 994,7 10 0 0,8
16.03.2019 20:00:00 8,7 7,2 - - 21 11 - - W 994,5 10 0 0,8
16.03.2019 19:00:00 9,8 8,3 - - 24 13 57 31 SW 993,8 10 0 0,6
16.03.2019 18:00:00 10,8 7,4 - - 26 14 61 33 SW 994,4 10 0 0,0
16.03.2019 17:00:00 10,3 7,5 - - 29 16 57 31 SW 995,1 20 0 0,0

tt = temperature
td = dewpoint
tt -20cm = temperature -20cm
tt -100cm = temperature -100cm
ff = wind speed
fx = gusts
dd = wind direction
ppp = reduced air pressure
vv = visibility
sd = sunshine duration
rr = precipitation

Next stations